Location: Baden
(37.6497°N, 122.4341°W)
Time: 15:07:44
(UTC+00:00)

Daily predictions for brighter satellites

Satellite Brightness Start Highest point End
(mag) Time Altitude Azimuth Time Altitude Azimuth Time Altitude Azimuth
Cosmos 1727 Rocket 4.5 12:05:19 10° N 12:11:34 68° E 12:17:50 10° SSE
NOSS 0 Rocket 4.4 12:06:39 10° NW 12:12:19 38° WSW 12:17:59 10° S
SL-8 Rocket 4.5 12:08:31 10° SSW 12:14:17 41° WNW 12:20:04 10° N
Thor Agena Rocket 3.6 12:10:01 10° N 12:15:15 71° WNW 12:20:30 10° SSW
Tiangong -1.7 12:16:11 10° WNW 12:19:14 63° NNE 12:22:17 10° E
Cosmos 1538 Rocket 4.2 12:15:03 10° NNW 12:20:14 80° ENE 12:25:25 10° SSE
YAOGAN 6 3.3 12:21:46 10° N 12:24:40 30° WNW 12:27:32 10° SW
Cosmos 2228 3.0 12:20:52 10° N 12:25:12 86° W 12:29:31 10° S
Cosmos 1455 Rocket 4.5 12:22:23 10° NW 12:25:36 20° W 12:28:47 10° SW
DMSP B5D2-2 4.2 12:22:12 10° S 12:27:21 60° W 12:32:34 10° NNW
